EHI
24 22 19 17 14 12 9 7 6 6 5 5 4 2 3 4 3 2 2 2 2 2 2 2 2 2 1 2 1 0 0 0 0 0 0 0 0 0 0 0 0 0 0
24 20 17 15 13 10 8 6 5 4 3 3 2 2 2 2 2 1 1 1 1 1 1 1 1 1 1 1 1 0 0 0 0 0 0 0 0 0 0 0 0 0 0
21 18 15 14 11 9 7 5 4 3 3 1 1 1 1 1 1 0 0 0 0 0 0 0 0 0 0 0 0 0 0 0 0 0 0 0 0 0 0 0 0 0 0
18 17 15 13 10 7 6 4 3 3 3 2 1 1 1 0 0 0 0 0 0 0 0 0 0 0 0 0 0 0 0 0 0 0 0 0 0 0 0 0 0 0 0
16 15 15 13 11 8 5 4 3 3 3 2 1 1 1 1 1 2 1 1 0 0 0 0 0 0 0 0 0 0 0 0 0 0 0 0 0 0 0 0 0 0 0
14 14 14 14 13 10 7 5 4 3 3 2 0 0 1 2 4 4 3 2 1 0 0 0 0 0 0 0 0 0 0 0 0 0 0 0 0 0 0 0 0 0 0
14 15 15 15 13 11 9 7 5 3 3 2 1 0 1 3 5 6 5 4 2 1 0 0 0 0 0 0 0 0 0 0 0 0 0 0 0 0 0 0 0 0 0
15 14 13 13 12 10 9 8 6 4 3 3 2 1 0 2 5 6 5 4 3 1 0 0 0 0 0 0 0 0 0 0 0 0 0 0 0 0 0 0 0 0 0
13 11 10 10 9 8 7 6 5 3 2 2 2 1 1 2 4 4 4 4 2 1 0 0 0 0 0 0 0 0 0 0 0 0 0 0 0 0 0 0 0 0 0
9 8 7 7 6 5 4 3 2 1 1 1 1 1 1 3 3 3 3 3 1 0 0 0 0 0 0 0 0 0 0 0 0 0 0 0 0 0 0 0 0 0 0
7 7 6 6 5 4 3 1 0 0 0 0 0 0 1 2 3 3 3 2 1 0 0 0 0 0 0 0 0 0 0 0 0 0 0 0 0 0 0 0 0 0 0
6 6 6 5 4 3 2 1 0 0 0 0 0 0 0 1 2 3 2 1 0 0 0 0 0 0 0 0 0 0 0 0 0 0 0 0 0 0 0 0 0 0 0
6 5 4 4 3 3 1 0 0 0 0 0 0 0 0 0 1 2 1 0 0 0 0 0 0 0 0 0 0 0 0 0 0 0 0 0 0 0 0 0 0 0 0
5 4 3 3 3 2 1 0 0 0 0 0 0 0 0 0 0 0 0 0 0 0 0 0 0 0 0 0 0 0 0 0 0 0 0 0 0 0 0 0 0 0 0
4 3 3 3 2 1 0 0 0 0 0 0 0 0 0 0 0 0 0 0 0 0 0 0 0 0 0 0 0 0 0 0 0 0 0 0 0 0 0 0 0 0 0
2 2 2 2 1 0 0 0 0 0 0 0 0 0 0 0 0 0 0 0 0 0 0 0 0 0 0 0 0 0 0 0 0 0 0 0 0 0 0 0 0 0 0
1 1 1 1 0 0 0 0 0 0 0 0 0 0 0 0 0 0 0 0 0 0 0 0 0 0 0 0 0 0 0 0 0 0 0 0 0 0 0 0 0 0 0
0 0 0 0 0 0 0 0 0 0 0 0 0 0 0 0 0 0 0 0 0 0 0 0 0 0 0 0 0 0 0 0 0 0 0 0 0 0 0 0 0 0 0
0 0 0 0 0 0 0 0 0 0 0 0 0 0 0 0 0 0 0 0 0 0 0 0 0 0 0 0 0 0 0 0 0 0 0 0 0 0 0 0 0 0 0
0 0 0 0 0 0 0 0 0 0 0 0 0 0 0 0 0 0 0 0 0 0 0 0 0 0 0 0 0 0 0 0 0 0 0 0 0 0 0 0 0 0 0
0 0 0 0 0 0 0 0 0 0 0 0 0 0 0 0 0 0 0 0 0 0 0 0 0 0 0 0 0 0 0 0 0 0 0 0 0 0 0 0 0 0 0
0 0 0 0 0 0 0 0 0 0 0 0 0 0 0 0 0 0 0 0 0 0 0 0 0 0 0 0 0 0 0 0 0 0 0 0 0 0 0 0 0 0 0
0 0 0 0 0 0 0 0 0 0 0 0 0 0 0 0 0 0 0 0 0 0 0 0 0 0 0 0 0 0 0 0 0 0 0 0 0 0 0 0 0 0 0
0 0 0 0 0 0 0 0 0 0 0 0 0 0 0 0 0 0 0 0 0 0 0 0 0 0 0 0 0 0 0 0 0 0 0 0 0 0 0 0 0 0 0
0 0 0 0 0 0 0 0 0 0 0 0 0 0 0 0 0 0 0 0 0 0 0 0 0 0 0 0 0 0 0 0 0 0 0 0 0 0 0 0 0 0 0
0 0 0 0 0 0 0 0 0 0 0 0 0 0 0 0 0 0 0 0 0 0 0 0 0 0 0 0 0 0 0 0 0 0 0 0 0 0 0 0 0 0 0
Wind_Speed
7 7 6 7 7 6 6 5 4 3 3 2 2 2 2 2 2 2 3 3 3 3 3 2 2 2 2 2 2 1 1 1 1 2 2 2 3 3 2 2 2 3 3
7 6 6 5 6 6 5 4 4 3 2 2 1 1 2 2 1 2 3 4 4 4 3 3 2 2 2 3 2 1 1 1 0 1 1 1 2 3 4 3 3 3 3
11 8 7 6 5 5 5 4 4 3 3 2 2 3 3 2 2 3 2 3 3 3 3 3 3 3 3 2 2 1 1 0 1 0 1 2 1 0 2 3 3 3 4
9 8 7 6 6 5 5 4 4 4 3 3 3 4 3 2 1 1 1 2 4 4 4 4 4 3 3 2 2 2 1 1 0 1 1 1 2 2 1 1 3 4 4
9 8 7 7 6 5 5 4 5 4 4 4 4 4 3 2 1 2 3 3 3 4 4 4 3 3 3 3 3 2 2 0 0 0 1 1 1 1 2 1 1 1 2
10 8 6 6 5 5 5 5 5 4 4 4 4 4 4 4 4 3 3 2 2 3 4 4 3 3 3 3 2 2 2 1 0 0 0 0 0 1 1 2 1 1 1
11 9 8 7 6 6 5 5 5 4 4 4 4 4 4 4 4 3 2 2 2 2 3 3 3 2 2 2 2 2 2 2 1 1 0 0 1 1 1 2 2 1 1
9 9 8 7 7 6 5 5 5 4 4 4 3 3 4 3 2 2 2 2 1 1 2 3 3 3 3 3 3 2 2 2 2 2 1 1 1 0 1 2 3 2 1
10 9 8 6 6 6 5 5 5 4 3 3 3 3 3 3 3 2 2 1 1 1 2 3 3 3 3 3 3 2 2 2 2 2 2 1 1 1 0 1 3 4 3
9 8 6 6 5 5 5 4 5 4 3 3 3 3 3 3 3 3 3 2 2 2 3 3 3 4 4 4 3 2 2 2 2 1 2 2 1 1 1 1 1 2 3
9 8 6 6 6 6 5 4 4 4 4 3 3 3 2 3 3 2 2 2 2 3 3 3 3 4 4 4 4 3 3 3 2 2 2 2 1 1 1 1 1 2 2
8 7 7 7 6 6 4 4 4 4 3 3 3 2 2 2 2 2 2 3 3 3 3 4 4 4 5 4 4 3 3 3 3 3 3 2 2 2 1 1 1 2 2
8 7 7 7 6 5 4 4 3 3 3 3 3 2 2 1 1 2 2 3 3 3 4 4 4 4 4 4 4 4 3 3 3 3 3 2 2 2 2 2 2 2 2
8 7 7 6 6 5 5 4 3 3 3 3 3 2 1 1 1 2 2 3 3 3 3 3 3 3 4 4 4 4 3 3 3 3 3 2 2 2 2 2 2 2 3
8 8 8 6 6 5 4 4 4 3 3 3 3 2 1 1 2 2 3 3 3 3 3 3 3 3 3 3 4 3 3 3 3 3 3 3 3 3 2 2 2 3 3
9 9 8 8 7 7 6 5 4 3 3 3 2 2 1 1 2 2 2 3 3 3 3 3 2 3 3 5 5 3 2 2 2 2 2 3 4 4 4 4 3 4 4
9 9 9 8 7 6 6 6 5 4 3 3 2 2 2 1 1 2 2 2 2 2 2 2 2 2 3 6 6 5 2 2 2 2 2 2 3 4 3 3 4 2 2
8 8 7 7 6 5 5 5 4 4 3 3 2 2 2 2 2 2 1 1 1 1 1 1 1 2 3 5 6 5 3 3 2 2 1 2 2 3 2 2 3 2 1
7 7 6 6 6 6 6 5 4 4 3 3 3 3 3 3 2 1 1 0 0 1 1 1 1 1 3 4 4 4 3 3 3 3 2 2 2 3 4 3 3 3 2
6 6 6 6 6 5 6 5 4 3 3 3 3 2 3 3 2 2 1 1 0 1 1 1 1 0 2 3 3 2 2 2 2 2 3 3 2 3 4 2 2 1 1
7 7 7 6 5 5 5 5 4 3 3 3 2 2 2 3 2 1 1 1 0 1 2 2 2 2 2 2 2 2 2 1 1 1 2 2 3 3 3 2 1 1 1
7 7 6 5 4 5 6 5 3 3 3 3 3 2 2 2 1 1 1 0 0 1 1 2 3 3 2 2 2 1 1 1 1 1 1 2 4 4 3 1 1 1 1
6 6 7 6 4 4 5 5 3 3 3 3 2 2 1 0 1 1 1 1 0 0 1 1 1 3 2 3 3 3 2 1 0 2 3 4 6 5 3 3 4 2 0
6 6 6 6 4 4 5 5 4 4 4 3 2 1 1 1 1 0 1 1 1 1 1 2 2 2 2 2 2 2 2 2 2 2 4 6 5 4 3 4 3 1 2
5 6 6 6 5 4 4 4 4 4 4 3 2 1 1 2 1 1 2 2 3 4 4 3 3 2 3 4 4 2 1 1 1 2 2 3 3 3 3 3 3 2 1
5 5 6 5 5 5 4 4 4 4 4 2 2 2 2 1 1 1 2 4 4 5 6 6 5 4 6 6 4 4 4 3 2 1 2 3 3 3 3 4 4 3 3
Wind_Direction
139 132 126 120 110 98 94 88 82 65 74 78 80 78 70 62 52 50 51 48 42 41 45 42 32 27 33 27 40 55 50 23 47 64 34 17 27 42 34 44 67 64 59
138 136 128 121 115 113 103 92 87 75 68 78 100 114 112 88 75 49 37 36 39 36 48 41 29 26 31 36 38 50 48 312 30 107 115 10 4 29 29 33 51 52 46
156 150 136 128 119 111 107 96 79 67 58 65 82 81 69 57 40 35 31 19 34 39 42 44 44 36 40 36 30 40 67 313 310 76 143 161 203 126 20 32 41 48 51
150 146 139 132 125 117 109 98 84 70 57 63 92 102 110 108 98 75 53 30 35 38 41 45 45 39 38 32 19 38 26 113 315 326 350 192 170 157 126 23 34 45 51
149 147 142 134 123 118 113 102 86 69 52 54 78 89 87 97 92 72 61 38 21 25 31 36 37 33 27 24 22 12 4 28 192 265 334 9 34 135 148 162 132 50 32
143 136 129 122 117 116 109 102 91 73 59 60 69 87 93 90 86 70 56 34 16 11 16 29 30 26 22 18 12 10 5 357 4 43 118 157 171 172 145 154 157 135 41
147 146 144 139 135 129 119 107 97 81 69 68 65 77 92 92 95 89 68 54 30 10 359 17 23 19 17 17 17 23 13 16 25 7 289 233 216 185 152 139 144 127 112
147 148 150 149 143 133 124 114 104 91 77 74 70 71 80 89 90 85 85 72 45 345 359 21 23 18 20 25 20 17 13 29 27 18 6 324 296 162 158 155 147 135 111
147 148 149 149 145 133 125 120 112 98 82 81 81 75 75 82 81 69 64 57 22 7 18 22 21 16 19 24 23 17 6 22 21 7 360 353 338 14 145 154 158 152 155
143 140 140 142 134 123 117 113 109 103 92 83 82 85 70 75 79 71 55 38 20 21 19 21 27 24 18 19 25 7 4 26 13 11 20 11 356 26 47 124 155 151 144
150 145 140 134 126 119 118 116 109 105 95 84 78 75 63 60 63 57 39 33 27 27 31 31 31 30 23 18 22 14 23 27 18 21 30 13 22 47 38 63 103 119 125
146 143 139 136 133 128 126 124 119 118 117 107 95 85 70 56 48 33 23 30 31 31 39 44 41 38 30 22 23 18 23 26 24 20 33 16 47 55 49 77 102 115 120
141 138 140 142 141 138 137 134 130 135 130 122 110 92 81 68 37 22 27 35 46 43 39 53 53 39 30 24 19 24 29 30 27 25 35 27 57 61 57 77 93 101 105
151 150 150 150 150 148 146 141 134 140 136 130 123 108 100 87 52 35 36 45 55 55 51 59 57 41 30 21 16 28 35 29 24 22 30 35 56 73 79 81 91 105 105
164 163 158 154 154 150 148 143 139 137 135 130 127 130 123 87 71 54 40 41 51 62 62 64 48 32 29 15 15 23 38 34 26 17 18 37 60 74 86 109 122 124 121
172 165 161 158 161 159 156 150 144 143 135 135 149 150 126 99 75 59 52 54 52 49 55 54 45 32 17 14 25 32 33 30 38 21 10 25 39 48 60 79 107 137 145
167 165 166 164 164 161 155 155 156 148 142 148 153 147 133 119 99 97 77 66 51 47 42 38 40 23 359 17 22 29 55 50 41 39 31 33 33 34 45 52 56 71 118
161 163 159 156 153 150 148 151 150 150 154 157 157 153 140 136 123 98 87 56 46 41 14 2 17 18 358 11 20 35 55 52 39 41 57 60 31 31 50 58 52 44 39
153 156 155 151 148 149 150 145 149 155 160 168 169 166 155 149 142 138 170 243 27 353 314 310 12 16 345 2 24 48 50 49 29 19 32 53 48 36 66 76 62 39 12
140 145 142 136 144 154 145 142 155 158 173 177 173 165 155 152 160 184 212 236 225 276 307 335 329 321 328 348 26 56 76 58 19 3 6 22 39 38 57 80 86 54 328
141 140 138 140 151 151 139 142 150 170 180 166 144 135 144 158 171 186 220 224 297 348 347 338 322 314 299 326 12 63 102 118 50 4 342 339 8 24 38 60 121 228 265
138 138 137 143 149 146 140 142 164 184 161 139 128 131 154 180 162 168 263 291 355 353 334 337 330 323 318 324 339 19 74 137 126 288 297 309 335 343 341 343 300 303 1
142 140 140 145 153 156 152 157 181 162 137 130 143 162 162 205 183 191 245 295 336 309 286 292 297 303 315 327 338 355 11 40 111 276 287 308 322 329 328 312 308 317 90
141 139 140 146 161 169 165 170 174 154 139 143 163 172 162 258 282 269 214 206 235 242 249 252 254 271 299 306 319 331 346 2 359 331 324 330 329 328 313 312 315 289 212
147 147 151 158 169 171 170 174 167 150 144 155 177 205 223 223 249 269 250 226 231 216 208 220 215 208 246 251 230 216 250 266 303 336 351 350 344 338 326 317 305 290 249
148 150 155 161 170 171 174 180 174 160 154 168 200 217 226 230 229 248 295 286 256 257 234 222 213 226 233 237 237 239 251 266 287 26 320 304 299 294 290 292 294 284 258